EW6466 Weather Reports


Display with metric or nautical units.
time (UTC)temp
F
wind
direction
speed
MPH
gust
MPH
rain 1hr
in
rain 24hr
in
rain mn
in
humidity
%
barometer
mb
20260904140030 78 187 4.0 11.0 0.00 0.00 0.00 82 1011.3
20260904134537 77 156 4.0 7.0 0.00 0.00 0.00 83 1011.1
20260904133027 76 198 1.0 10.0 0.00 0.00 0.00 84 1011.0
20260904131524 76 202 1.0 10.0 0.00 0.00 0.00 84 1010.9
20260904130023 76 222 4.0 9.0 0.00 0.00 0.00 84 1010.6
20260904124522 75 180 1.0 6.0 0.00 0.00 0.00 84 1010.4
20260904123021 75 207 2.0 5.0 0.00 0.00 0.00 84 1010.2
20260904121521 75 166 3.0 6.0 0.00 0.00 0.00 84 1009.8
20260904120021 76 175 2.0 7.0 0.00 0.00 0.00 84 1009.8
20260904114518 76 188 5.0 11.0 0.00 0.00 0.00 84 1009.8
20260904113017 76 182 2.0 7.0 0.00 0.00 0.00 84 1009.7
20260904111618 76 144 2.0 10.0 0.00 0.00 0.00 83 1009.8
20260904110016 76 170 2.0 7.0 0.00 0.00 0.00 83 1009.8
20260904104514 76 158 5.0 9.0 0.00 0.00 0.00 83 1009.8
20260904103013 76 177 3.0 6.0 0.00 0.00 0.00 83 1009.8
20260904101512 76 182 2.0 7.0 0.00 0.00 0.00 82 1009.7
20260904100011 76 144 3.0 7.0 0.00 0.00 0.00 82 1009.8
20260904094521 76 135 3.0 12.0 0.00 0.00 0.00 82 1009.8
20260904093008 76 180 4.0 9.0 0.00 0.00 0.00 82 1009.8
20260904091509 76 165 4.0 8.0 0.00 0.00 0.00 82 1009.8
20260904090021 76 178 5.0 14.0 0.00 0.00 0.00 82 1009.8
20260904084504 76 170 5.0 10.0 0.00 0.00 0.00 82 1010.0
20260904083003 76 180 4.0 8.0 0.00 0.00 0.00 82 1010.1
20260904081505 76 181 4.0 11.0 0.00 0.00 0.00 82 1010.1
20260904080101 76 208 2.0 7.0 0.00 0.00 0.00 81 1009.8
20260904074558 77 216 3.0 6.0 0.00 0.00 0.00 80 1010.0
20260904073100 77 204 3.0 9.0 0.00 0.00 0.00 80 1010.0
20260904071617 77 155 2.0 10.0 0.00 0.00 0.00 78 1010.3
20260904070113 78 32 3.0 7.0 0.00 0.00 0.00 77 1010.4
20260904064550 78 22 4.0 9.0 0.00 0.00 0.00 75 1010.3
20260904063100 78 14 2.0 12.0 0.00 0.00 0.00 73 1010.3
20260904061545 79 246 3.0 17.0 0.00 0.00 0.00 71 1010.3
20260904060141 79 207 3.0 12.0 0.00 0.00 0.00 68 1010.3
20260904054547 80 360 3.0 10.0 0.00 0.00 0.00 63 1010.5
20260904053051 81 75 5.0 13.0 0.00 0.00 0.00 61 1010.3
20260904051539 82 164 4.0 9.0 0.00 0.00 0.00 60 1010.0
20260904050036 82 217 5.0 16.0 0.00 0.00 0.00 60 1009.9
20260904044528 83 274 9.0 16.0 0.00 0.00 0.00 60 1009.9
20260904043034 84 226 4.0 14.0 0.00 0.00 0.00 59 1009.9
20260904041527 84 97 5.0 11.0 0.00 0.00 0.00 59 1009.9
20260904040026 85 64 4.0 11.0 0.00 0.00 0.00 59 1009.8
20260904034526 85 40 4.0 12.0 0.00 0.00 0.00 58 1009.7
20260904033028 85 60 5.0 14.0 0.00 0.00 0.00 57 1009.6
20260904031534 86 80 8.0 15.0 0.00 0.00 0.00 55 1009.6
20260904030026 87 80 6.0 21.0 0.00 0.00 0.00 53 1009.2
20260904024524 88 117 5.0 14.0 0.00 0.00 0.00 49 1008.7
20260904023023 90 32 6.0 14.0 0.00 0.00 0.00 44 1008.4
20260904021525 90 47 3.0 10.0 0.00 0.00 0.00 43 1007.9
20260904020022 90 43 5.0 14.0 0.00 0.00 0.00 43 1007.7
20260904014522 91 24 4.0 9.0 0.00 0.00 0.00 41 1007.6
20260904013021 91 40 2.0 6.0 0.00 0.00 0.00 40 1007.3
20260904011522 92 48 2.0 10.0 0.00 0.00 0.00 40 1007.3
20260904010022 92 62 3.0 9.0 0.00 0.00 0.00 40 1007.1
20260904004520 93 13 2.0 8.0 0.00 0.00 0.00 39 1007.1
20260904003019 93 63 3.0 12.0 0.00 0.00 0.00 39 1007.1
20260904001518 94 105 5.0 14.0 0.00 0.00 0.00 39 1007.0
20260904000018 95 77 3.0 8.0 0.00 0.00 0.00 39 1006.7
20260903234517 96 34 3.0 10.0 0.00 0.00 0.00 36 1006.8
20260903233017 96 96 4.0 11.0 0.00 0.00 0.00 36 1006.7
20260903231516 96 257 3.0 8.0 0.00 0.00 0.00 36 1006.5
20260903230021 96 53 3.0 10.0 0.00 0.00 0.00 34 1006.5
20260903224519 98 91 6.0 13.0 0.00 0.00 0.00 33 1006.5
20260903223017 100 55 5.0 10.0 0.00 0.00 0.00 33 1006.5
20260903221512 100 166 3.0 7.0 0.00 0.00 0.00 32 1006.5
20260903220016 101 149 2.0 10.0 0.00 0.00 0.00 32 1006.6
20260903214518 100 191 5.0 14.0 0.00 0.00 0.00 32 1006.5
20260903213009 99 57 2.0 9.0 0.00 0.00 0.00 33 1006.7
20260903211519 100 279 7.0 12.0 0.00 0.00 0.00 32 1006.9
20260903210012 100 71 4.0 12.0 0.00 0.00 0.00 33 1007.0
20260903204503 102 54 3.0 10.0 0.00 0.00 0.00 32 1007.1
20260903203102 100 180 7.0 13.0 0.00 0.00 0.00 34 1007.5
20260903201607 101 177 6.0 10.0 0.00 0.00 0.00 34 1007.6
20260903200101 101 178 4.0 12.0 0.00 0.00 0.00 34 1007.9
20260903194558 100 92 3.0 15.0 0.00 0.00 0.00 36 1008.0
20260903193053 102 146 7.0 15.0 0.00 0.00 0.00 34 1008.4
20260903191551 100 138 2.0 11.0 0.00 0.00 0.00 37 1008.5
20260903190048 101 140 4.0 12.0 0.00 0.00 0.00 35 1008.8
20260903184544 100 173 3.0 12.0 0.00 0.00 0.00 38 1009.2
20260903183039 99 201 4.0 9.0 0.00 0.00 0.00 38 1009.4
20260903181536 98 226 3.0 13.0 0.00 0.00 0.00 41 1009.8
20260903180040 96 204 5.0 12.0 0.00 0.00 0.00 39 1010.1
20260903174530 96 159 3.0 12.0 0.00 0.00 0.00 45 1010.2
20260903173026 95 231 7.0 12.0 0.00 0.00 0.00 44 1010.4
20260903171523 95 157 3.0 10.0 0.00 0.00 0.00 48 1010.6
20260903170020 93 162 5.0 8.0 0.00 0.00 0.00 51 1010.7
20260903164516 92 186 5.0 9.0 0.00 0.00 0.00 54 1010.9
20260903163012 91 192 3.0 9.0 0.00 0.00 0.00 56 1011.0
20260903161508 90 169 5.0 9.0 0.00 0.00 0.00 58 1010.9
20260903160007 88 165 3.0 8.0 0.00 0.00 0.00 62 1010.9
20260903154503 87 192 4.0 9.0 0.00 0.00 0.00 67 1010.8
20260903153121 85 190 5.0 11.0 0.00 0.00 0.00 69 1010.9
20260903151606 84 187 4.0 10.0 0.00 0.00 0.00 71 1010.9
20260903150104 82 192 3.0 10.0 0.00 0.00 0.00 75 1010.9
20260903144555 81 184 3.0 11.0 0.00 0.00 0.00 76 1010.9
20260903143105 81 184 4.0 8.0 0.00 0.00 0.00 76 1011.1
20260903141553 80 170 3.0 6.0 0.00 0.00 0.00 80 1011.0